Temperature
21 22 21 21 21 20 20 20 20 20 20 19 19 19 19 19 19 19 19 19 18 18 18 18 18 18 18 18 18 18 18 18 18 18 18 18 18 17 17 17 17 17 17
22 22 21 21 21 20 20 20 20 20 19 19 19 19 19 19 19 19 18 18 18 18 18 18 18 18 18 18 18 18 18 18 18 18 18 18 17 17 17 17 17 17 17
22 22 22 21 21 20 20 20 20 19 19 19 19 19 19 19 18 18 18 18 18 18 18 18 18 18 18 18 18 18 18 18 18 18 18 17 17 17 17 17 17 17 17
22 22 22 21 21 20 20 20 19 19 19 19 19 19 18 18 18 18 18 18 18 18 18 18 18 18 18 18 18 18 18 18 18 17 17 17 17 17 17 17 17 17 17
21 21 22 21 21 20 20 20 19 19 19 19 19 18 18 18 18 18 18 18 18 18 18 18 18 18 18 18 18 18 18 18 17 17 17 17 17 17 17 17 17 17 17
21 21 22 21 21 20 20 19 19 19 19 19 19 18 18 18 18 18 18 18 18 18 18 18 18 18 18 18 18 18 18 17 17 17 17 17 17 17 17 17 17 17 17
21 21 22 21 20 20 20 19 19 19 19 19 18 18 18 18 18 18 18 18 18 18 18 18 18 18 18 18 18 18 18 17 17 17 17 17 17 17 17 17 17 17 17
21 21 22 21 20 20 20 19 19 19 19 18 18 18 18 18 18 18 18 18 18 18 18 18 18 18 18 18 18 18 18 18 18 17 17 18 17 17 17 17 17 17 17
21 21 21 21 20 20 20 19 19 19 19 18 18 18 18 18 18 18 18 18 18 18 18 18 18 18 18 18 18 18 18 18 18 17 17 18 17 17 17 17 17 17 17
21 20 21 20 20 20 19 19 19 19 19 18 18 18 18 18 18 18 18 18 18 18 18 18 18 18 18 18 18 18 18 18 18 17 18 18 17 17 17 17 17 17 17
21 20 20 19 19 19 19 19 19 19 19 18 18 18 18 18 18 18 18 18 18 18 18 18 18 18 18 18 18 18 18 18 17 17 18 18 18 17 17 17 17 17 17
21 21 20 20 19 19 18 19 19 19 19 18 18 18 18 18 17 18 18 18 18 18 18 18 18 18 18 18 18 18 18 18 18 18 18 18 18 17 17 17 17 17 17
21 21 20 20 20 19 19 19 18 18 18 18 18 18 18 18 18 18 18 18 18 18 18 18 18 17 17 17 18 18 18 18 18 18 18 18 18 17 17 17 17 17 17
21 21 20 20 20 19 19 19 19 18 19 18 18 18 18 18 18 18 18 18 18 18 18 18 18 17 17 17 18 18 18 18 18 18 18 18 18 17 17 17 17 17 17
21 21 20 20 20 19 19 19 19 19 19 18 18 18 18 18 18 18 18 18 18 18 18 18 18 18 18 18 18 18 18 18 18 18 18 18 18 18 17 17 17 17 17
21 20 20 19 19 19 19 19 19 19 19 19 19 18 18 18 18 18 18 18 18 18 18 18 18 18 18 18 18 18 18 18 18 17 18 18 18 18 18 17 17 17 17
20 20 20 19 19 19 19 19 19 19 19 19 19 18 18 18 18 18 18 18 18 18 18 18 18 18 18 18 18 18 18 18 17 17 17 18 18 18 17 17 17 17 17
20 19 19 19 19 19 19 19 19 19 19 19 19 18 19 18 18 18 18 18 18 18 18 18 18 18 18 18 18 18 18 18 17 17 17 17 17 17 17 17 17 17 17
20 19 19 19 19 19 19 19 19 19 19 19 19 18 19 18 18 18 18 18 18 18 18 18 18 18 18 18 18 18 18 18 18 17 17 17 17 17 17 17 17 17 17
19 19 19 19 19 19 18 18 18 19 19 19 19 18 18 18 18 18 18 18 18 18 18 18 18 18 18 18 18 18 18 18 18 18 18 17 17 17 17 17 17 17 17
19 19 19 18 18 18 18 18 18 18 18 18 18 18 18 18 18 18 18 18 18 18 18 18 18 18 18 18 18 18 18 18 18 18 18 18 17 17 17 17 17 17 17
19 19 18 18 18 18 18 18 18 18 18 18 19 18 18 18 18 18 18 18 18 18 18 18 18 18 18 18 18 18 18 18 18 18 18 18 18 17 17 17 17 17 17
19 19 18 18 18 18 18 18 18 18 18 18 18 18 18 18 18 18 18 18 18 18 18 18 18 18 18 18 18 18 18 18 18 18 18 18 18 18 17 17 17 17 17
19 19 19 18 18 18 18 18 18 18 18 18 18 18 18 18 18 18 18 18 18 18 18 18 18 18 18 18 18 18 18 18 18 18 18 18 18 18 18 18 17 17 17
20 19 19 18 18 18 18 18 18 18 18 18 18 18 18 18 18 18 18 18 18 18 18 18 18 18 18 18 18 18 19 18 19 19 18 18 18 18 18 18 18 17 17
20 19 19 18 18 18 18 18 18 18 18 18 18 18 18 18 18 18 18 18 18 18 18 18 18 18 18 18 18 18 18 19 19 19 19 19 18 18 18 18 18 17 17
Wind_Speed
17 17 18 16 16 16 16 16 16 15 15 15 14 14 14 14 14 13 13 13 12 12 12 12 12 11 12 13 14 14 15 16 18 19 19 19 18 16 16 17 18 17 18
21 20 19 18 17 16 16 16 16 16 15 15 14 13 13 13 13 13 13 12 12 12 12 12 12 12 13 14 14 14 14 15 16 18 18 17 16 14 13 13 17 15 17
22 20 19 18 18 17 17 16 16 16 15 14 13 13 12 12 12 12 12 12 12 12 12 13 13 13 13 14 13 13 13 14 14 16 17 15 14 15 16 17 18 17 17
22 20 19 19 18 18 17 16 16 16 15 14 13 12 12 12 12 12 12 12 12 12 12 13 13 13 13 13 13 12 12 12 12 12 12 14 14 15 17 17 17 16 16
20 20 21 20 19 18 17 17 16 16 15 14 13 12 12 12 12 12 12 12 12 12 13 13 14 13 13 12 12 11 10 10 10 9 13 16 15 15 16 15 16 16 15
21 21 21 20 19 18 17 17 16 15 14 14 13 12 11 11 12 12 12 12 12 13 13 14 14 13 12 11 10 9 8 7 6 10 15 16 14 14 15 15 15 15 15
21 21 21 20 19 18 17 16 16 15 14 13 12 12 11 12 12 12 12 12 12 13 13 13 13 13 11 10 8 6 4 3 4 12 15 15 15 15 15 15 15 14 14
21 21 21 20 19 18 17 16 15 14 13 13 12 12 12 12 11 12 12 12 12 12 13 13 12 12 11 9 6 3 1 4 8 14 16 16 16 15 14 14 14 14 13
21 20 18 19 18 17 16 16 15 14 13 13 12 12 12 12 12 12 12 12 11 12 12 12 11 11 9 8 5 2 2 4 4 13 16 15 15 15 14 14 13 13 13
19 19 16 18 17 16 15 15 15 14 13 13 12 12 12 12 12 12 12 11 11 11 11 11 11 10 9 7 4 2 3 5 5 14 15 15 15 14 14 13 13 12 12
17 16 16 16 15 15 15 15 14 14 13 13 12 12 12 11 12 11 13 11 10 10 10 10 10 10 9 7 4 2 3 2 8 13 15 16 15 14 13 12 12 11 12
16 15 13 15 14 14 14 14 12 12 13 12 12 12 10 9 10 12 14 11 10 10 10 9 9 10 9 8 6 4 4 3 8 13 14 17 15 13 13 12 12 11 11
14 13 13 14 11 11 9 11 9 9 11 11 12 12 9 9 10 12 10 10 10 10 9 9 9 9 7 6 7 6 4 4 8 13 14 16 14 13 12 11 11 11 11
13 13 12 12 8 7 9 8 7 7 8 8 10 10 9 5 5 7 7 10 10 8 7 7 6 7 7 6 6 4 2 3 10 13 14 15 14 12 11 11 11 10 10
12 12 12 11 9 5 4 4 6 5 8 9 11 9 9 6 3 5 5 6 7 8 7 4 4 4 4 4 4 4 4 4 10 13 13 14 13 12 11 10 10 10 10
11 12 11 11 9 7 5 3 2 5 6 10 10 10 8 7 5 4 3 3 4 6 6 5 5 4 2 3 3 4 4 4 9 13 14 13 13 12 11 11 10 10 10
11 11 11 11 10 8 7 6 4 4 7 6 8 10 7 8 8 5 3 3 4 6 6 4 4 5 4 4 4 3 3 4 7 10 13 13 12 12 12 11 11 11 10
10 11 11 12 12 9 7 6 3 4 4 5 9 10 8 8 9 5 3 4 6 7 5 3 3 3 3 3 4 3 3 4 4 8 10 13 14 13 13 13 13 12 11
11 11 9 9 12 11 9 6 3 3 3 5 7 8 9 9 9 5 3 4 5 4 3 4 3 2 3 3 4 4 3 4 4 6 6 11 13 13 14 15 15 14 13
11 10 10 9 10 10 8 6 3 3 3 4 5 7 9 9 9 6 4 5 4 3 2 3 4 2 1 2 2 4 3 5 4 4 5 8 11 13 14 15 14 14 16
12 11 11 11 10 9 7 7 6 5 4 4 5 8 9 8 9 5 2 4 2 2 3 4 3 3 2 2 1 1 2 4 5 5 4 4 7 10 12 16 15 14 14
12 11 11 10 11 10 8 6 5 5 4 4 4 6 9 8 8 8 4 4 4 3 3 3 3 1 3 3 2 1 0 1 2 5 5 5 5 7 9 14 14 15 15
12 12 11 10 10 10 9 6 5 4 3 3 4 5 6 8 8 5 6 3 4 4 4 4 4 3 2 2 2 2 1 2 2 2 4 4 4 4 4 9 12 14 13
12 11 10 10 10 10 9 9 10 8 7 7 5 5 5 6 7 6 6 4 3 3 5 6 6 3 3 2 2 2 2 2 2 1 2 3 6 5 4 5 7 10 11
11 11 10 10 10 10 10 10 10 8 7 6 5 6 6 5 6 7 6 5 4 3 5 3 3 3 2 3 2 2 2 2 3 3 2 2 2 4 4 3 4 7 9
10 10 10 10 10 10 10 9 9 9 7 7 7 7 7 6 6 7 7 5 5 4 4 4 3 4 2 1 1 1 2 2 2 2 3 3 3 3 3 3 3 6 7
Wind_Direction
130 132 131 128 125 125 125 125 123 119 115 110 105 101 97 93 91 90 91 92 94 98 103 106 104 103 102 100 98 97 96 95 97 97 98 98 99 102 107 110 107 102 105
129 132 132 130 128 126 125 126 125 121 118 114 110 107 103 99 97 95 95 95 95 98 101 105 106 105 106 106 105 104 104 103 106 107 104 100 98 99 105 107 105 109 108
127 132 133 130 129 127 127 127 126 123 119 117 114 111 107 104 103 101 100 97 97 99 102 105 107 108 109 111 112 112 113 116 119 119 113 105 99 97 100 103 107 110 109
129 137 135 133 131 130 129 127 126 125 122 120 118 113 109 107 106 105 103 100 100 102 103 106 108 110 110 115 117 119 123 127 129 129 119 114 107 104 105 108 109 109 110
132 133 132 136 133 133 131 130 128 127 126 124 120 116 112 110 108 106 104 102 102 103 104 106 109 110 112 118 123 126 132 140 145 131 105 100 101 110 109 111 112 111 111
131 131 136 137 135 135 134 132 130 130 129 126 124 120 116 113 110 107 105 103 102 103 105 108 111 112 114 119 125 133 141 152 169 123 115 110 111 115 113 112 112 113 113
134 132 138 139 138 137 136 134 133 133 132 130 127 123 119 116 113 110 109 106 106 107 108 111 112 115 117 120 128 137 147 181 176 116 112 111 117 119 116 114 113 113 113
131 132 137 140 140 140 139 138 137 137 136 134 130 126 124 120 117 114 113 110 111 111 111 114 115 116 118 122 129 137 183 297 124 115 112 113 121 121 120 117 116 117 115
131 133 142 144 144 144 144 143 142 141 140 137 135 133 130 127 124 120 117 116 116 117 117 118 119 121 122 126 131 148 276 321 95 117 115 117 125 125 124 123 121 122 120
131 137 147 149 147 149 147 147 146 144 143 143 143 142 140 139 136 132 127 122 123 124 125 125 126 128 130 136 148 193 299 319 113 109 112 123 127 128 127 126 125 126 124
134 142 151 148 151 154 152 151 151 150 150 151 154 155 155 159 151 150 128 131 132 133 133 135 135 139 145 153 169 212 292 303 98 100 112 128 131 131 131 131 129 128 129
145 149 150 148 155 157 152 150 160 163 161 172 165 169 179 169 155 138 135 140 144 146 148 151 152 158 168 165 176 205 244 180 113 110 122 133 134 134 136 137 137 135 134
151 150 148 148 157 153 142 158 170 165 164 180 171 172 169 159 143 137 148 152 160 165 170 162 176 186 189 176 165 199 221 138 114 114 130 135 137 138 139 142 142 144 143
155 151 149 144 145 142 151 162 164 163 166 170 162 171 159 164 155 148 155 165 172 173 170 175 186 178 172 170 164 170 135 103 114 119 138 140 142 144 146 149 152 152 152
156 152 145 141 136 134 135 166 170 164 170 161 158 178 165 160 153 139 147 164 165 160 166 174 181 147 137 143 147 135 102 93 120 127 140 148 150 153 155 157 160 161 161
154 149 143 140 139 143 152 185 169 171 164 154 160 168 178 149 134 135 143 148 150 157 157 161 156 138 158 148 146 140 141 138 124 130 144 153 160 164 166 169 169 170 171
152 151 147 149 151 160 172 189 185 182 169 160 151 157 173 147 140 148 146 169 161 147 143 157 155 162 173 159 155 152 150 141 138 142 149 160 167 174 177 178 178 179 181
152 154 162 166 160 169 178 192 194 203 167 148 149 156 167 148 150 161 165 171 158 157 165 159 183 169 159 153 156 176 157 145 148 157 164 166 169 177 183 187 186 188 190
157 161 170 163 164 172 178 186 211 195 154 147 151 154 167 163 160 175 161 140 168 173 173 176 160 158 155 162 174 175 170 162 162 185 178 172 172 175 178 188 192 194 198
163 165 170 173 168 169 172 176 200 203 175 163 153 154 163 172 164 182 169 157 187 172 158 111 122 118 123 177 210 173 184 172 175 184 189 179 174 182 180 181 188 200 207
167 172 175 179 173 169 171 174 183 194 192 183 168 159 167 180 164 185 173 153 200 163 156 151 149 156 189 183 168 184 209 191 180 179 196 183 180 184 179 177 186 192 200
174 177 178 181 176 175 170 173 183 180 191 192 173 158 172 176 168 182 178 178 172 150 158 153 138 159 202 184 178 158 230 257 216 198 182 188 186 177 181 186 189 185 192
178 181 184 183 180 180 171 171 178 178 193 191 176 165 172 175 183 188 167 195 165 173 163 180 170 184 207 207 193 166 176 190 212 221 194 182 173 178 189 185 188 189 191
179 179 182 180 177 178 176 180 181 187 192 191 184 166 173 180 183 178 177 180 177 177 159 193 186 187 200 219 209 211 201 149 164 195 236 184 178 181 201 192 184 183 185
176 176 179 178 178 178 183 185 189 192 192 186 179 164 174 183 191 184 180 176 182 189 170 186 152 187 213 220 214 204 212 194 206 183 195 198 189 184 186 174 154 161 166
169 172 172 174 178 178 186 188 197 197 190 182 178 178 185 183 196 191 181 178 188 194 166 171 170 194 216 255 293 282 238 216 219 188 170 182 185 195 165 147 142 141 147
Height
1507 1509 1512 1515 1517 1519 1522 1524 1526 1528 1530 1532 1533 1535 1536 1537 1539 1540 1541 1542 1543 1545 1546 1547 1548 1550 1551 1552 1554 1555 1556 1557 1559 1560 1561 1562 1563 1565 1566 1567 1568 1569 1571
1506 1510 1513 1516 1519 1521 1524 1526 1528 1530 1532 1534 1535 1537 1538 1539 1541 1542 1543 1544 1545 1546 1547 1549 1550 1551 1552 1554 1555 1557 1558 1559 1560 1562 1563 1564 1566 1567 1568 1570 1571 1572 1573
1506 1510 1514 1517 1520 1522 1525 1528 1530 1532 1534 1536 1537 1539 1540 1542 1543 1544 1545 1546 1547 1548 1549 1550 1551 1553 1554 1556 1557 1558 1560 1561 1562 1564 1565 1566 1568 1569 1571 1572 1573 1574 1576
1508 1512 1515 1518 1521 1524 1527 1529 1531 1533 1535 1537 1539 1541 1542 1543 1545 1546 1547 1548 1549 1550 1551 1552 1553 1554 1556 1557 1559 1560 1562 1563 1565 1566 1568 1569 1570 1572 1573 1574 1576 1577 1578
1510 1513 1516 1519 1522 1525 1528 1530 1533 1535 1537 1539 1541 1543 1544 1545 1547 1548 1549 1550 1551 1552 1553 1554 1555 1556 1558 1559 1561 1563 1564 1565 1567 1568 1570 1572 1573 1574 1575 1577 1578 1579 1580
1512 1514 1517 1520 1523 1526 1529 1532 1534 1537 1539 1541 1542 1544 1546 1547 1548 1549 1550 1551 1552 1553 1554 1555 1557 1558 1560 1562 1563 1565 1566 1568 1569 1571 1572 1573 1575 1576 1577 1579 1580 1581 1582
1513 1515 1518 1521 1524 1527 1530 1533 1535 1538 1540 1542 1544 1546 1547 1549 1550 1551 1552 1553 1554 1555 1556 1557 1559 1560 1562 1563 1565 1567 1568 1570 1572 1573 1574 1575 1577 1578 1579 1580 1582 1583 1584
1513 1515 1519 1522 1526 1528 1531 1534 1537 1539 1541 1543 1545 1547 1549 1550 1551 1553 1554 1555 1556 1557 1558 1559 1561 1562 1564 1565 1567 1569 1570 1571 1574 1575 1576 1577 1578 1579 1581 1582 1583 1585 1586
1514 1516 1520 1523 1526 1529 1532 1535 1538 1540 1543 1545 1547 1548 1550 1552 1553 1554 1556 1557 1558 1559 1560 1561 1562 1564 1565 1567 1569 1570 1572 1574 1576 1576 1577 1578 1579 1581 1582 1583 1585 1587 1588
1515 1518 1521 1524 1527 1530 1533 1536 1539 1541 1544 1546 1548 1550 1551 1553 1554 1556 1557 1559 1560 1561 1562 1563 1564 1566 1567 1569 1571 1572 1574 1575 1577 1577 1578 1579 1580 1582 1583 1585 1586 1588 1589
1516 1519 1522 1525 1528 1531 1534 1537 1540 1542 1544 1547 1549 1551 1552 1554 1556 1557 1559 1560 1561 1563 1564 1565 1566 1568 1569 1571 1573 1574 1575 1576 1578 1578 1579 1580 1582 1583 1584 1586 1587 1589 1591
1516 1520 1523 1526 1529 1533 1536 1537 1540 1543 1545 1547 1550 1552 1554 1556 1557 1559 1560 1561 1563 1564 1566 1567 1568 1569 1571 1573 1574 1576 1576 1577 1578 1579 1580 1581 1582 1584 1585 1587 1588 1590 1591
1516 1519 1524 1527 1530 1534 1536 1538 1541 1544 1546 1548 1551 1553 1555 1557 1558 1560 1561 1562 1564 1565 1567 1568 1569 1570 1572 1574 1576 1576 1578 1579 1579 1580 1581 1582 1583 1584 1586 1587 1589 1590 1592
1516 1519 1523 1526 1529 1533 1536 1539 1542 1545 1546 1549 1551 1554 1556 1558 1559 1561 1562 1563 1564 1566 1568 1569 1570 1571 1573 1575 1576 1577 1578 1580 1580 1580 1581 1583 1584 1585 1586 1588 1589 1591 1592
1515 1518 1522 1525 1529 1532 1536 1540 1543 1545 1547 1549 1551 1554 1556 1558 1560 1561 1563 1564 1565 1567 1568 1570 1571 1572 1574 1575 1577 1578 1579 1580 1580 1581 1582 1583 1584 1585 1587 1588 1589 1591 1592
1514 1517 1520 1524 1527 1531 1535 1539 1542 1544 1547 1549 1551 1553 1556 1558 1560 1562 1563 1564 1566 1567 1569 1570 1571 1573 1574 1575 1577 1578 1579 1580 1581 1582 1582 1583 1584 1586 1587 1588 1589 1590 1592
1512 1516 1519 1523 1526 1530 1534 1538 1541 1544 1547 1549 1551 1553 1556 1558 1559 1561 1563 1564 1566 1567 1569 1570 1572 1573 1574 1576 1577 1578 1579 1580 1581 1582 1582 1583 1584 1585 1587 1588 1589 1590 1591
1511 1514 1518 1522 1525 1528 1532 1536 1540 1543 1546 1549 1551 1552 1555 1557 1559 1561 1563 1564 1566 1567 1569 1570 1572 1573 1574 1576 1577 1578 1579 1580 1581 1582 1583 1583 1584 1585 1586 1587 1588 1589 1591
1510 1513 1516 1520 1523 1526 1530 1534 1538 1542 1544 1547 1550 1552 1554 1556 1558 1560 1562 1564 1565 1567 1569 1570 1571 1573 1574 1575 1576 1577 1578 1579 1580 1582 1583 1583 1584 1585 1585 1587 1588 1589 1590
1509 1512 1515 1518 1521 1524 1528 1532 1536 1539 1543 1546 1548 1551 1553 1555 1557 1559 1561 1563 1565 1567 1568 1569 1570 1572 1573 1574 1576 1577 1578 1579 1579 1581 1582 1583 1583 1584 1585 1586 1587 1588 1589
1508 1510 1513 1516 1519 1522 1526 1529 1533 1537 1540 1544 1547 1549 1551 1554 1556 1558 1560 1561 1564 1565 1567 1568 1569 1571 1572 1574 1575 1576 1577 1578 1579 1580 1581 1582 1583 1584 1584 1585 1586 1587 1588
1506 1509 1511 1514 1517 1520 1524 1527 1532 1536 1539 1542 1545 1547 1550 1552 1555 1557 1559 1560 1562 1564 1566 1567 1568 1570 1571 1573 1574 1575 1576 1578 1578 1579 1580 1581 1582 1583 1584 1584 1585 1586 1587
1504 1506 1509 1511 1515 1518 1522 1525 1529 1533 1536 1540 1543 1545 1548 1550 1553 1556 1557 1559 1561 1563 1564 1565 1567 1569 1570 1572 1573 1574 1575 1575 1576 1578 1578 1579 1580 1582 1583 1584 1584 1585 1586
1503 1505 1508 1510 1512 1516 1519 1522 1526 1529 1532 1536 1540 1542 1545 1548 1551 1553 1555 1557 1559 1561 1562 1564 1565 1567 1569 1570 1572 1573 1574 1574 1575 1576 1578 1578 1579 1580 1581 1583 1583 1584 1584
1502 1503 1505 1507 1510 1513 1516 1520 1524 1527 1531 1534 1537 1540 1543 1545 1548 1551 1553 1555 1557 1559 1560 1562 1564 1566 1567 1569 1570 1571 1572 1573 1574 1575 1576 1577 1578 1579 1580 1581 1582 1582 1583
1500 1502 1503 1505 1508 1511 1514 1518 1521 1525 1528 1532 1534 1537 1540 1543 1545 1548 1550 1552 1555 1557 1558 1560 1562 1564 1565 1567 1568 1569 1571 1572 1573 1574 1574 1575 1577 1578 1578 1579 1580 1581 1581